| time (UTC) | temp C | wind direction | speed KPH | gust KPH | rain 1hr cm | rain 24hr cm | rain mn cm | humidity % | barometer mb |
| 20260505140551 | 14 | 290 | 0.0 | 0.0 | 0.00 | 0.00 | 0.08 | 79 | 1005.7 |
| 20260505125029 | 14 | 281 | 0.0 | 0.0 | 0.00 | 0.00 | 0.08 | 82 | 1005.1 |
| 20260505124530 | 14 | 281 | 0.0 | 0.0 | 0.00 | 0.00 | 0.08 | 83 | 1004.9 |
| 20260505124031 | 14 | 281 | 0.0 | 0.0 | 0.00 | 0.00 | 0.08 | 83 | 1004.9 |
| 20260505123528 | 14 | 281 | 0.0 | 0.0 | 0.00 | 0.00 | 0.08 | 83 | 1004.9 |
| 20260505123049 | 14 | 281 | 0.0 | 0.0 | 0.00 | 0.00 | 0.08 | 83 | 1004.4 |
| 20260505122547 | 14 | 281 | 1.6 | 0.0 | 0.00 | 0.00 | 0.08 | 84 | 1004.4 |
| 20260505122026 | 14 | 281 | 1.6 | 0.0 | 0.00 | 0.00 | 0.08 | 81 | 1004.4 |
| 20260505121530 | 14 | 276 | 0.0 | 0.0 | 0.00 | 0.00 | 0.08 | 86 | 1004.5 |
| 20260505121027 | 15 | 276 | 0.0 | 0.0 | 0.00 | 0.00 | 0.08 | 86 | 1004.5 |
| 20260505120550 | 15 | 276 | 0.0 | 0.0 | 0.00 | 0.00 | 0.08 | 86 | 1004.5 |
| 20260505120029 | 15 | 276 | 0.0 | 0.0 | 0.00 | 0.00 | 0.08 | 86 | 1004.5 |
| 20260505115530 | 15 | 276 | 0.0 | 0.0 | 0.00 | 0.00 | 0.08 | 86 | 1004.5 |
| 20260505115035 | 15 | 276 | 0.0 | 0.0 | 0.00 | 0.00 | 0.08 | 86 | 1004.5 |
| 20260505114536 | 15 | 276 | 0.0 | 0.0 | 0.00 | 0.00 | 0.08 | 87 | 1004.0 |
| 20260505114031 | 15 | 276 | 0.0 | 0.0 | 0.00 | 0.00 | 0.08 | 87 | 1004.0 |
| 20260505113530 | 15 | 276 | 1.6 | 0.0 | 0.00 | 0.00 | 0.08 | 87 | 1004.0 |
| 20260505113030 | 15 | 276 | 1.6 | 0.0 | 0.00 | 0.00 | 0.08 | 88 | 1003.4 |
| 20260505112552 | 15 | 271 | 1.6 | 0.0 | 0.00 | 0.00 | 0.08 | 88 | 1003.4 |
| 20260505112052 | 15 | 261 | 1.6 | 0.0 | 0.00 | 0.00 | 0.08 | 88 | 1003.4 |
| 20260505111548 | 15 | 160 | 0.0 | 0.0 | 0.00 | 0.00 | 0.08 | 88 | 1004.0 |
| 20260505111028 | 15 | 160 | 0.0 | 0.0 | 0.00 | 0.00 | 0.08 | 88 | 1004.0 |
| 20260505110548 | 15 | 160 | 0.0 | 0.0 | 0.00 | 0.00 | 0.08 | 88 | 1004.0 |
| 20260505102024 | 15 | 160 | 0.0 | 0.0 | 0.00 | 0.00 | 0.08 | 87 | 1003.5 |
| 20260505101525 | 15 | 160 | 0.0 | 0.0 | 0.00 | 0.00 | 0.08 | 86 | 1002.9 |
| 20260505101024 | 15 | 160 | 0.0 | 0.0 | 0.00 | 0.00 | 0.08 | 86 | 1002.9 |
| 20260505100525 | 15 | 160 | 0.0 | 0.0 | 0.00 | 0.00 | 0.08 | 86 | 1002.9 |
| 20260505100031 | 15 | 160 | 0.0 | 0.0 | 0.00 | 0.00 | 0.08 | 86 | 1002.8 |
| 20260505095532 | 15 | 160 | 0.0 | 0.0 | 0.00 | 0.00 | 0.08 | 85 | 1002.8 |
| 20260505095052 | 15 | 160 | 0.0 | 0.0 | 0.00 | 0.00 | 0.08 | 85 | 1002.8 |
| 20260505094552 | 15 | 160 | 0.0 | 0.0 | 0.00 | 0.00 | 0.08 | 84 | 1002.3 |
| 20260505094026 | 15 | 160 | 0.0 | 0.0 | 0.00 | 0.00 | 0.08 | 84 | 1002.3 |
| 20260505093526 | 15 | 160 | 0.0 | 0.0 | 0.00 | 0.00 | 0.08 | 83 | 1002.3 |
| 20260505093031 | 15 | 160 | 0.0 | 0.0 | 0.00 | 0.00 | 0.08 | 83 | 1001.0 |
| 20260505092533 | 15 | 160 | 0.0 | 0.0 | 0.00 | 0.00 | 0.08 | 84 | 1001.0 |
| 20260505092034 | 15 | 159 | 3.2 | 0.0 | 0.00 | 0.00 | 0.08 | 84 | 1001.0 |
| 20260505091536 | 16 | 92 | 4.8 | 0.0 | 0.00 | 0.00 | 0.08 | 85 | 1001.0 |
| 20260505091039 | 15 | 63 | 4.8 | 0.0 | 0.00 | 0.00 | 0.08 | 85 | 1002.3 |
| 20260505090524 | 16 | 105 | 3.2 | 0.0 | 0.00 | 0.00 | 0.05 | 86 | 1002.3 |
| 20260505090025 | 16 | 92 | 1.6 | 0.0 | 0.00 | 0.00 | 0.03 | 86 | 1003.6 |
| 20260505085528 | 16 | 42 | 0.0 | 0.0 | 0.00 | 0.00 | 0.03 | 86 | 1004.5 |
| 20260505085028 | 16 | 34 | 0.0 | 0.0 | 0.00 | 0.00 | 0.03 | 85 | 1004.5 |
| 20260505084550 | 16 | 34 | 0.0 | 0.0 | 0.00 | 0.00 | 0.03 | 84 | 1004.9 |
| 20260505084026 | 16 | 34 | 0.0 | 0.0 | 0.00 | 0.00 | 0.00 | 83 | 1004.9 |
| 20260505083547 | 16 | 34 | 0.0 | 0.0 | 0.00 | 0.00 | 0.00 | 82 | 1004.9 |
| 20260505083025 | 16 | 34 | 0.0 | 0.0 | 0.00 | 0.00 | 0.00 | 81 | 1004.7 |
| 20260505082525 | 16 | 34 | 0.0 | 0.0 | 0.00 | 0.00 | 0.00 | 81 | 1004.7 |
| 20260505082026 | 17 | 34 | 0.0 | 0.0 | 0.00 | 0.00 | 0.00 | 79 | 1004.7 |
| 20260505081526 | 17 | 34 | 0.0 | 0.0 | 0.00 | 0.00 | 0.00 | 78 | 1004.1 |
| 20260505081026 | 17 | 135 | 0.0 | 0.0 | 0.00 | 0.00 | 0.00 | 76 | 1004.1 |
| 20260505080529 | 17 | 135 | 0.0 | 0.0 | 0.00 | 0.00 | 0.00 | 74 | 1004.1 |
| 20260505080053 | 17 | 165 | 1.6 | 0.0 | 0.00 | 0.00 | 0.00 | 73 | 1004.2 |
| 20260505075535 | 18 | 55 | 1.6 | 0.0 | 0.00 | 0.00 | 0.00 | 71 | 1004.2 |
| 20260505075036 | 18 | 138 | 0.0 | 0.0 | 0.00 | 0.00 | 0.00 | 69 | 1004.2 |
| 20260505074540 | 18 | 125 | 0.0 | 0.0 | 0.00 | 0.00 | 0.00 | 68 | 1004.2 |
| 20260505074021 | 18 | 215 | 1.6 | 0.0 | 0.00 | 0.00 | 0.00 | 67 | 1004.1 |
| 20260505073556 | 18 | 215 | 1.6 | 0.0 | 0.00 | 0.00 | 0.00 | 66 | 1004.1 |
| 20260505073036 | 18 | 184 | 0.0 | 0.0 | 0.00 | 0.00 | 0.00 | 66 | 1004.0 |
| 20260505072537 | 18 | 106 | 0.0 | 0.0 | 0.00 | 0.00 | 0.00 | 65 | 1004.0 |
| 20260505072056 | 18 | 131 | 0.0 | 0.0 | 0.00 | 0.00 | 0.00 | 65 | 1004.0 |
| 20260505071531 | 18 | 69 | 0.0 | 0.0 | 0.00 | 0.00 | 0.00 | 65 | 1003.7 |
| 20260505071036 | 18 | 23 | 0.0 | 0.0 | 0.00 | 0.00 | 0.00 | 65 | 1003.7 |
| 20260505070535 | 18 | 173 | 0.0 | 0.0 | 0.00 | 0.00 | 0.00 | 65 | 1003.7 |
| 20260505070037 | 18 | 68 | 1.6 | 0.0 | 0.00 | 0.00 | 0.00 | 64 | 1003.7 |
| 20260505065538 | 18 | 53 | 1.6 | 0.0 | 0.00 | 0.00 | 0.00 | 64 | 1004.1 |
| 20260505065038 | 18 | 55 | 1.6 | 0.0 | 0.00 | 0.00 | 0.00 | 65 | 1004.1 |
| 20260505064558 | 18 | 76 | 0.0 | 0.0 | 0.00 | 0.00 | 0.00 | 65 | 1004.1 |
| 20260505064040 | 18 | 75 | 0.0 | 0.0 | 0.00 | 0.00 | 0.00 | 65 | 1004.5 |
| 20260505063540 | 18 | 40 | 0.0 | 0.0 | 0.00 | 0.00 | 0.00 | 65 | 1004.5 |
| 20260505063023 | 18 | 101 | 0.0 | 0.0 | 0.00 | 0.00 | 0.00 | 65 | 1004.6 |
| 20260505062525 | 18 | 92 | 0.0 | 0.0 | 0.00 | 0.00 | 0.00 | 65 | 1004.6 |
| 20260505062025 | 18 | 355 | 0.0 | 0.0 | 0.00 | 0.00 | 0.00 | 65 | 1004.6 |
| 20260505061527 | 18 | 51 | 0.0 | 0.0 | 0.00 | 0.00 | 0.00 | 65 | 1004.7 |
| 20260505061021 | 18 | 75 | 0.0 | 0.0 | 0.00 | 0.00 | 0.00 | 65 | 1004.7 |
| 20260505060522 | 18 | 100 | 0.0 | 0.0 | 0.00 | 0.00 | 0.00 | 65 | 1004.7 |
| 20260505060027 | 18 | 44 | 0.0 | 0.0 | 0.00 | 0.00 | 0.00 | 65 | 1004.7 |
| 20260505055527 | 18 | 44 | 0.0 | 0.0 | 0.00 | 0.00 | 0.00 | 65 | 1004.7 |
| 20260505055029 | 18 | 44 | 0.0 | 0.0 | 0.00 | 0.00 | 0.00 | 65 | 1004.7 |
| 20260505054525 | 18 | 360 | 0.0 | 0.0 | 0.00 | 0.00 | 0.00 | 65 | 1004.6 |
| 20260505054027 | 18 | 110 | 0.0 | 0.0 | 0.00 | 0.00 | 0.00 | 65 | 1004.6 |
| 20260505053524 | 18 | 110 | 0.0 | 0.0 | 0.00 | 0.00 | 0.00 | 65 | 1004.6 |
| 20260505053027 | 18 | 110 | 0.0 | 0.0 | 0.00 | 0.00 | 0.00 | 65 | 1004.7 |
| 20260505052527 | 18 | 89 | 0.0 | 0.0 | 0.00 | 0.00 | 0.00 | 65 | 1004.7 |
| 20260505052028 | 18 | 89 | 0.0 | 0.0 | 0.00 | 0.00 | 0.00 | 65 | 1004.7 |
| 20260505051525 | 18 | 59 | 0.0 | 0.0 | 0.00 | 0.00 | 0.00 | 65 | 1004.7 |
| 20260505051024 | 18 | 58 | 0.0 | 0.0 | 0.00 | 0.00 | 0.00 | 65 | 1004.7 |
| 20260505050525 | 18 | 58 | 0.0 | 0.0 | 0.00 | 0.00 | 0.00 | 65 | 1004.7 |
| 20260505041529 | 18 | 75 | 0.0 | 0.0 | 0.00 | 0.00 | 0.00 | 65 | 1005.6 |
| 20260505041053 | 18 | 38 | 0.0 | 0.0 | 0.00 | 0.00 | 0.00 | 64 | 1005.6 |
| 20260505040552 | 18 | 38 | 0.0 | 0.0 | 0.00 | 0.00 | 0.00 | 64 | 1005.6 |
| 20260505040030 | 18 | 38 | 0.0 | 0.0 | 0.00 | 0.00 | 0.00 | 63 | 1005.8 |
| 20260505035551 | 18 | 38 | 0.0 | 0.0 | 0.00 | 0.00 | 0.00 | 63 | 1005.8 |
| 20260505035029 | 18 | 38 | 0.0 | 0.0 | 0.00 | 0.00 | 0.00 | 63 | 1005.8 |
| 20260505034530 | 18 | 38 | 0.0 | 0.0 | 0.00 | 0.00 | 0.00 | 63 | 1005.8 |
| 20260505034030 | 18 | 38 | 0.0 | 0.0 | 0.00 | 0.00 | 0.00 | 63 | 1005.8 |
| 20260505033530 | 18 | 38 | 0.0 | 0.0 | 0.00 | 0.00 | 0.00 | 63 | 1005.8 |
| 20260505033032 | 19 | 38 | 0.0 | 0.0 | 0.00 | 0.00 | 0.00 | 62 | 1005.8 |
| 20260505032538 | 19 | 38 | 0.0 | 0.0 | 0.00 | 0.00 | 0.00 | 62 | 1005.8 |
| 20260505032058 | 20 | 38 | 0.0 | 0.0 | 0.00 | 0.00 | 0.00 | 60 | 1005.8 |
| 20260505031538 | 20 | 38 | 0.0 | 0.0 | 0.00 | 0.00 | 0.00 | 60 | 1005.8 |
| 20260505031037 | 20 | 38 | 0.0 | 0.0 | 0.00 | 0.00 | 0.00 | 58 | 1004.9 |
| 20260505030536 | 20 | 38 | 0.0 | 0.0 | 0.00 | 0.00 | 0.00 | 58 | 1004.9 |
| 20260505030037 | 20 | 38 | 0.0 | 0.0 | 0.00 | 0.00 | 0.00 | 58 | 1004.7 |
| 20260505025557 | 20 | 38 | 0.0 | 0.0 | 0.00 | 0.00 | 0.00 | 58 | 1004.7 |
| 20260505025053 | 20 | 38 | 0.0 | 0.0 | 0.00 | 0.00 | 0.00 | 58 | 1004.7 |
| 20260505024533 | 20 | 42 | 0.0 | 0.0 | 0.00 | 0.00 | 0.00 | 58 | 1004.5 |
| 20260505024033 | 20 | 42 | 0.0 | 0.0 | 0.00 | 0.00 | 0.00 | 58 | 1004.5 |
| 20260505023533 | 20 | 42 | 0.0 | 0.0 | 0.00 | 0.00 | 0.00 | 58 | 1004.5 |
| 20260505023032 | 20 | 42 | 0.0 | 0.0 | 0.00 | 0.00 | 0.00 | 59 | 1004.2 |
| 20260505022548 | 20 | 42 | 0.0 | 0.0 | 0.00 | 0.00 | 0.00 | 58 | 1004.2 |
| 20260505022026 | 20 | 42 | 0.0 | 0.0 | 0.00 | 0.00 | 0.00 | 58 | 1004.2 |
| 20260505021531 | 20 | 42 | 0.0 | 0.0 | 0.00 | 0.00 | 0.00 | 58 | 1004.2 |
| 20260505021035 | 20 | 42 | 0.0 | 0.0 | 0.00 | 0.00 | 0.00 | 58 | 1004.2 |
| 20260505020538 | 20 | 42 | 0.0 | 0.0 | 0.00 | 0.00 | 0.00 | 59 | 1004.2 |
| 20260505020038 | 20 | 42 | 0.0 | 0.0 | 0.00 | 0.00 | 0.00 | 58 | 1004.1 |
| 20260505015533 | 20 | 42 | 0.0 | 0.0 | 0.00 | 0.00 | 0.00 | 58 | 1004.1 |
| 20260505015038 | 20 | 42 | 0.0 | 0.0 | 0.00 | 0.00 | 0.00 | 58 | 1004.1 |
| 20260505014522 | 20 | 42 | 0.0 | 0.0 | 0.00 | 0.00 | 0.00 | 57 | 1003.7 |
| 20260505014025 | 21 | 42 | 0.0 | 0.0 | 0.00 | 0.00 | 0.00 | 56 | 1003.7 |
| 20260505013527 | 21 | 42 | 0.0 | 0.0 | 0.00 | 0.00 | 0.00 | 56 | 1003.7 |
| 20260505013027 | 21 | 42 | 0.0 | 0.0 | 0.00 | 0.00 | 0.00 | 55 | 1003.5 |
| 20260505012527 | 21 | 42 | 0.0 | 0.0 | 0.00 | 0.00 | 0.00 | 56 | 1003.5 |
| 20260505012023 | 21 | 42 | 0.0 | 0.0 | 0.00 | 0.00 | 0.00 | 53 | 1003.5 |
| 20260505011548 | 21 | 42 | 0.0 | 0.0 | 0.00 | 0.00 | 0.00 | 53 | 1003.5 |
| 20260505011053 | 21 | 42 | 0.0 | 0.0 | 0.00 | 0.00 | 0.00 | 53 | 1003.5 |
| 20260505010540 | 22 | 38 | 0.0 | 0.0 | 0.00 | 0.00 | 0.00 | 52 | 1003.5 |
| 20260505010045 | 22 | 50 | 0.0 | 0.0 | 0.00 | 0.00 | 0.00 | 51 | 1003.5 |
| 20260505005524 | 22 | 50 | 0.0 | 0.0 | 0.00 | 0.00 | 0.00 | 50 | 1003.5 |
| 20260505005030 | 22 | 50 | 0.0 | 0.0 | 0.00 | 0.00 | 0.00 | 50 | 1003.5 |
| 20260505004532 | 22 | 50 | 0.0 | 0.0 | 0.00 | 0.00 | 0.00 | 49 | 1003.1 |
| 20260505004035 | 22 | 54 | 0.0 | 0.0 | 0.00 | 0.00 | 0.00 | 46 | 1003.1 |
| 20260505003537 | 22 | 54 | 0.0 | 0.0 | 0.00 | 0.00 | 0.00 | 47 | 1003.1 |
| 20260505003024 | 23 | 109 | 0.0 | 0.0 | 0.00 | 0.00 | 0.00 | 46 | 1003.0 |
| 20260505002530 | 23 | 109 | 0.0 | 0.0 | 0.00 | 0.00 | 0.00 | 44 | 1003.0 |
| 20260505002053 | 23 | 109 | 0.0 | 0.0 | 0.00 | 0.00 | 0.00 | 46 | 1003.0 |
| 20260505001537 | 23 | 109 | 0.0 | 0.0 | 0.00 | 0.00 | 0.00 | 44 | 1003.2 |
| 20260505001022 | 23 | 109 | 0.0 | 0.0 | 0.00 | 0.00 | 0.00 | 41 | 1003.2 |
| 20260505000526 | 24 | 109 | 0.0 | 0.0 | 0.00 | 0.00 | 0.00 | 42 | 1003.2 |
| 20260505000051 | 24 | 148 | 0.0 | 0.0 | 0.00 | 0.00 | 0.00 | 41 | 1003.1 |
| 20260504235535 | 24 | 27 | 1.6 | 0.0 | 0.00 | 0.00 | 0.00 | 40 | 1003.1 |
| 20260504235021 | 24 | 52 | 1.6 | 0.0 | 0.00 | 0.00 | 0.00 | 39 | 1003.1 |
| 20260504234526 | 25 | 57 | 1.6 | 0.0 | 0.00 | 0.00 | 0.00 | 40 | 1003.0 |
| 20260504234031 | 25 | 83 | 1.6 | 0.0 | 0.00 | 0.00 | 0.00 | 38 | 1003.0 |
| 20260504233536 | 25 | 49 | 0.0 | 0.0 | 0.00 | 0.00 | 0.00 | 38 | 1003.0 |
| 20260504233018 | 25 | 71 | 1.6 | 0.0 | 0.00 | 0.00 | 0.00 | 38 | 1003.0 |
| 20260504232526 | 25 | 153 | 1.6 | 0.0 | 0.00 | 0.00 | 0.00 | 38 | 1003.0 |
| 20260504232030 | 26 | 75 | 1.6 | 0.0 | 0.00 | 0.00 | 0.00 | 39 | 1003.0 |
| 20260504231532 | 26 | 66 | 0.0 | 0.0 | 0.00 | 0.00 | 0.00 | 38 | 1003.0 |
| 20260504231057 | 26 | 90 | 1.6 | 0.0 | 0.00 | 0.00 | 0.00 | 37 | 1003.0 |
| 20260504230522 | 26 | 157 | 1.6 | 0.0 | 0.00 | 0.00 | 0.00 | 38 | 1003.0 |
| 20260504230047 | 26 | 68 | 1.6 | 0.0 | 0.00 | 0.00 | 0.00 | 37 | 1003.0 |
| 20260504225531 | 26 | 204 | 1.6 | 0.0 | 0.00 | 0.00 | 0.00 | 36 | 1003.0 |
| 20260504225036 | 26 | 194 | 0.0 | 0.0 | 0.00 | 0.00 | 0.00 | 38 | 1003.0 |
| 20260504224541 | 26 | 128 | 1.6 | 0.0 | 0.00 | 0.00 | 0.00 | 36 | 1003.0 |
| 20260504224026 | 26 | 29 | 1.6 | 0.0 | 0.00 | 0.00 | 0.00 | 35 | 1003.0 |
| 20260504223533 | 26 | 76 | 1.6 | 0.0 | 0.00 | 0.00 | 0.00 | 37 | 1003.0 |
| 20260504223037 | 26 | 75 | 1.6 | 0.0 | 0.00 | 0.00 | 0.00 | 35 | 1003.0 |
| 20260504222541 | 26 | 26 | 1.6 | 0.0 | 0.00 | 0.00 | 0.00 | 34 | 1003.0 |
| 20260504222030 | 26 | 304 | 1.6 | 0.0 | 0.00 | 0.00 | 0.00 | 35 | 1003.0 |
| 20260504221533 | 26 | 92 | 3.2 | 0.0 | 0.00 | 0.00 | 0.00 | 36 | 1003.1 |
| 20260504221022 | 26 | 200 | 3.2 | 0.0 | 0.00 | 0.00 | 0.00 | 35 | 1003.1 |
| 20260504220524 | 26 | 277 | 1.6 | 0.0 | 0.00 | 0.00 | 0.00 | 34 | 1003.1 |
| 20260504220032 | 26 | 32 | 3.2 | 0.0 | 0.00 | 0.00 | 0.00 | 36 | 1003.2 |
| 20260504215601 | 26 | 132 | 1.6 | 0.0 | 0.00 | 0.00 | 0.00 | 38 | 1003.2 |
| 20260504215025 | 26 | 69 | 3.2 | 0.0 | 0.00 | 0.00 | 0.00 | 39 | 1003.2 |
| 20260504214528 | 26 | 249 | 1.6 | 0.0 | 0.00 | 0.00 | 0.00 | 37 | 1003.5 |
| 20260504214035 | 26 | 59 | 1.6 | 0.0 | 0.00 | 0.00 | 0.00 | 35 | 1003.5 |
| 20260504213557 | 26 | 148 | 1.6 | 0.0 | 0.00 | 0.00 | 0.00 | 35 | 1003.5 |
| 20260504213058 | 26 | 265 | 1.6 | 0.0 | 0.00 | 0.00 | 0.00 | 37 | 1003.5 |
| 20260504212523 | 26 | 105 | 3.2 | 0.0 | 0.00 | 0.00 | 0.00 | 37 | 1003.6 |
| 20260504212030 | 26 | 69 | 3.2 | 0.0 | 0.00 | 0.00 | 0.00 | 36 | 1003.6 |
| 20260504211537 | 26 | 340 | 1.6 | 0.0 | 0.00 | 0.00 | 0.00 | 34 | 1003.6 |
| 20260504211021 | 26 | 38 | 3.2 | 0.0 | 0.00 | 0.00 | 0.00 | 36 | 1003.8 |
| 20260504210541 | 27 | 171 | 3.2 | 0.0 | 0.00 | 0.00 | 0.00 | 36 | 1003.8 |
| 20260504210052 | 26 | 219 | 3.2 | 0.0 | 0.00 | 0.00 | 0.00 | 36 | 1004.0 |
| 20260504205555 | 27 | 9 | 1.6 | 0.0 | 0.00 | 0.00 | 0.00 | 35 | 1004.0 |
| 20260504205040 | 27 | 119 | 1.6 | 0.0 | 0.00 | 0.00 | 0.00 | 38 | 1004.0 |
| 20260504204525 | 26 | 44 | 3.2 | 0.0 | 0.00 | 0.00 | 0.00 | 35 | 1004.2 |
| 20260504204028 | 26 | 113 | 3.2 | 0.0 | 0.00 | 0.00 | 0.00 | 35 | 1004.2 |
| 20260504203531 | 26 | 217 | 3.2 | 0.0 | 0.00 | 0.00 | 0.00 | 36 | 1004.2 |
| 20260504203032 | 26 | 10 | 3.2 | 0.0 | 0.00 | 0.00 | 0.00 | 35 | 1004.4 |
| 20260504202536 | 26 | 91 | 3.2 | 0.0 | 0.00 | 0.00 | 0.00 | 38 | 1004.4 |
| 20260504202039 | 26 | 107 | 3.2 | 0.0 | 0.00 | 0.00 | 0.00 | 35 | 1004.4 |
| 20260504201547 | 26 | 95 | 3.2 | 0.0 | 0.00 | 0.00 | 0.00 | 36 | 1004.5 |
| 20260504201030 | 26 | 24 | 3.2 | 0.0 | 0.00 | 0.00 | 0.00 | 37 | 1004.5 |
| 20260504200538 | 26 | 355 | 4.8 | 0.0 | 0.00 | 0.00 | 0.00 | 35 | 1004.5 |
| 20260504200036 | 26 | 145 | 1.6 | 0.0 | 0.00 | 0.00 | 0.00 | 37 | 1004.6 |
| 20260504195524 | 26 | 323 | 1.6 | 0.0 | 0.00 | 0.00 | 0.00 | 38 | 1004.6 |
| 20260504195030 | 26 | 230 | 3.2 | 0.0 | 0.00 | 0.00 | 0.00 | 38 | 1004.6 |
| 20260504194536 | 26 | 57 | 3.2 | 0.0 | 0.00 | 0.00 | 0.00 | 37 | 1004.6 |
| 20260504194039 | 26 | 194 | 3.2 | 0.0 | 0.00 | 0.00 | 0.00 | 39 | 1004.6 |
| 20260504193524 | 26 | 259 | 3.2 | 0.0 | 0.00 | 0.00 | 0.00 | 37 | 1004.6 |
| 20260504193031 | 26 | 19 | 3.2 | 0.0 | 0.00 | 0.00 | 0.00 | 38 | 1004.8 |
| 20260504192522 | 26 | 230 | 3.2 | 0.0 | 0.00 | 0.00 | 0.00 | 38 | 1004.8 |
| 20260504192021 | 26 | 59 | 3.2 | 0.0 | 0.00 | 0.00 | 0.00 | 37 | 1004.8 |
| 20260504191547 | 26 | 254 | 3.2 | 0.0 | 0.00 | 0.00 | 0.00 | 37 | 1004.6 |
| 20260504191030 | 26 | 226 | 4.8 | 0.0 | 0.00 | 0.00 | 0.00 | 35 | 1005.5 |
| 20260504190536 | 26 | 200 | 3.2 | 0.0 | 0.00 | 0.00 | 0.00 | 38 | 1005.5 |
| 20260504190031 | 26 | 295 | 3.2 | 0.0 | 0.00 | 0.00 | 0.00 | 38 | 1005.6 |
| 20260504185552 | 26 | 90 | 3.2 | 0.0 | 0.00 | 0.00 | 0.00 | 38 | 1004.7 |
| 20260504185019 | 26 | 74 | 3.2 | 0.0 | 0.00 | 0.00 | 0.00 | 38 | 1004.7 |
| 20260504184524 | 26 | 114 | 4.8 | 0.0 | 0.00 | 0.00 | 0.00 | 38 | 1005.0 |
| 20260504184029 | 26 | 32 | 4.8 | 0.0 | 0.00 | 0.00 | 0.00 | 35 | 1005.0 |
| 20260504183535 | 26 | 114 | 4.8 | 0.0 | 0.00 | 0.00 | 0.00 | 37 | 1005.0 |
| 20260504183039 | 26 | 146 | 3.2 | 0.0 | 0.00 | 0.00 | 0.00 | 39 | 1005.0 |
| 20260504182523 | 26 | 54 | 3.2 | 0.0 | 0.00 | 0.00 | 0.00 | 38 | 1004.6 |
| 20260504182028 | 26 | 94 | 3.2 | 0.0 | 0.00 | 0.00 | 0.00 | 37 | 1004.6 |
| 20260504181532 | 26 | 306 | 3.2 | 0.0 | 0.00 | 0.00 | 0.00 | 40 | 1004.9 |
| 20260504181039 | 26 | 239 | 3.2 | 0.0 | 0.00 | 0.00 | 0.00 | 38 | 1004.9 |
| 20260504180525 | 26 | 88 | 3.2 | 0.0 | 0.00 | 0.00 | 0.00 | 41 | 1004.9 |
| 20260504180031 | 25 | 42 | 6.4 | 0.0 | 0.00 | 0.00 | 0.00 | 41 | 1005.0 |
| 20260504175559 | 26 | 11 | 6.4 | 0.0 | 0.00 | 0.00 | 0.00 | 39 | 1005.0 |
| 20260504175045 | 26 | 91 | 4.8 | 0.0 | 0.00 | 0.00 | 0.00 | 42 | 1005.0 |
| 20260504174529 | 26 | 41 | 4.8 | 0.0 | 0.00 | 0.00 | 0.00 | 40 | 1005.1 |
| 20260504174057 | 26 | 44 | 3.2 | 0.0 | 0.00 | 0.00 | 0.00 | 40 | 1005.1 |
| 20260504173539 | 26 | 203 | 3.2 | 0.0 | 0.00 | 0.00 | 0.00 | 38 | 1005.1 |
| 20260504173024 | 26 | 132 | 3.2 | 0.0 | 0.00 | 0.00 | 0.00 | 39 | 1005.2 |
| 20260504172528 | 26 | 34 | 1.6 | 0.0 | 0.00 | 0.00 | 0.00 | 41 | 1005.2 |
| 20260504172025 | 26 | 62 | 3.2 | 0.0 | 0.00 | 0.00 | 0.00 | 39 | 1005.2 |
| 20260504171531 | 25 | 165 | 3.2 | 0.0 | 0.00 | 0.00 | 0.00 | 43 | 1005.3 |
| 20260504171040 | 25 | 110 | 3.2 | 0.0 | 0.00 | 0.00 | 0.00 | 42 | 1005.3 |
| 20260504170523 | 26 | 59 | 3.2 | 0.0 | 0.00 | 0.00 | 0.00 | 37 | 1005.3 |
| 20260504151039 | 22 | 111 | 1.6 | 0.0 | 0.00 | 0.00 | 0.00 | 45 | 1006.6 |
| 20260504150527 | 22 | 105 | 3.2 | 0.0 | 0.00 | 0.00 | 0.00 | 44 | 1006.6 |